星链-5547 (STARLINK-5547 )

导读

STARLINK-5547是美国SpaceX公司星链(Starlink)星座的一颗低轨通信卫星,于2023年1月26日发射入轨。作为星链全球卫星互联网项目的组成部分,它运行在近地轨道,旨在为全球偏远地区、海洋和空域提供高速低延迟宽带互联网服务,助力缩小数字鸿沟。星链项目计划部署超4万颗卫星,该卫星的成功发射进一步推动了星座组网进程,不过大规模低轨卫星部署也引发了太空拥堵、天文观测干扰等领域的关注与讨论。

Basic Information
目录编号:
55352
目录名称:
STARLINK-5547
国际标识:
2023-013X
轨道中心:
EARTH
卫星名称:
星链-5547
卫星全名:
星链-5547 (STARLINK-5547 )
卫星状态:
在轨 (已飞行1317 天)
发射日期:
2023-01-26 UTC
国别 :
美国 (US)
星等 :
--
Orbit Information
数据来源 国际轨道数据
星历时间: 2026-09-04T03:17:59+0800
12小时前
查看轨道信息
半长轴: 6861.202km
偏心率: 0.0001256
轨道倾角: 43.005°
近地点辐角 270.248°
升交点赤经 14.108°
平近点角 89.822°
近地点: 482.203km
远地点: 483.927km
周期: 94.267分钟
每日圈数: 15.275748
Detailed Information
固有亮度:
5
最大亮度:
2.5
卫星平台:
Starlink v1.5
覆盖范围:
全球
运营商:
太空探索技术公司
运营商所在国:
美国
制造商(研发单位):
太空探索技术公司
制造商所在国:
美国
使用方式:
暂无
Satellite Introduction
星链(Starlink)计划是由太空探索技术公司(SpaceX)提出的一个巨型低轨卫星互联网星座项目,计划在2019年至2024年间在太空搭建由约1.2万颗卫星组成的“星链”网络,其中1584颗将部署在地球上空550千米处的近地轨道,并从2020年开始工作。该卫星仍在工作。
2D Orbit Map
3D Orbit Map
Orbit Altitude Analysis Chart
Orbit Inclination Analysis Chart
Orbit Comprehensive Analysis Chart
View Comprehensive Chart
Conjunction Data List
Event ID Objects TCA Miss Dist (km) Collision Risk Probability Collision Risk Index (CRI) Action
CDM_260905-060205-535206-746821
2026-09-05T
06:02:50+0000
0.512 km
远距离
1.312801E-4 高风险 0.77
CDM_260905-073605-535206-746821
2026-09-05T
07:36:59+0000
1.921 km
极远距离
2.101121E-6 低风险 0.41
CDM_260905-070505-535206-401021
2026-09-05T
07:05:49+0000
2.133 km
极远距离
1.274833E-6 低风险 0.37
CDM_260905-042805-535206-746821
2026-09-05T
04:28:40+0000
2.777 km
极远距离
1.017372E-6 低风险 0.35